Location: ??????
(41.3794°N, 22.5014°E)
Time: 06:42:23
(UTC+00:00)

YAOGAN 1 - Pass Details

Date: 30 November 2020
Orbit: 618 x 620 km, 97.9° (Epoch: 17 January)

Event Time Altitude Azimuth Distance (km) Brightness Sun altitude
Rises 16:43:38 0° 150° (SSE) 2,883 5.8 -18.7°
Enters shadow 16:44:26 - 148° (SSE) 2,558 5.5 -18.8°
Exits shadow 16:51:52 27° 17° (NNE) 1,195 3.7 -20.2°
Drops below altitude 10° 16:54:06 10° 0° (N) 1,997 5.0 -20.6°
Sets 16:56:22 0° 354° (N) 2,907 6.0 -21.0°
